Location: Beaver Brook Station
(42.3793°N, 71.2203°W)
Time: 01:29:44
(UTC+00:00)

Cosmos 2369 - Pass Details

Date: 29 October 2020
Orbit: 841 x 854 km, 71.0° (Epoch: 05 December)

Event Time Altitude Azimuth Distance (km) Brightness Sun altitude
Rises 23:31:35 0° 209° (SSW) 3,408 7.3 -20.9°
Reaches altitude 10° 23:34:02 10° 212° (SSW) 2,475 6.5 -21.3°
Maximum altitude 23:39:42 70° 296° (WNW) 903 3.9 -22.4°
Enters shadow 23:45:22 10° 20° (NNE) 2,466 5.9 -23.4°
